Weather observations for the past three days for
Doylestown, Doylestown Airport
Imperial (Metric)
Date Time (edt) Wind (mph) Vis. (mi.) Weather Sky Cond. Temperature (ºF) Relative Humidity Wind Chill (°F) Heat Index (°F) Pressure Precipitation (in)
Air Dwpt 6 hour altimeter (in) sea level (mb) 1 hr 3 hr 6 hr
Max. Min.
14 06:54 Calm 10.00 Fair CLR 73.9 73 97% 30.05 1017.0
14 05:54 Calm 10.00 Fair CLR 73 72 96% 30.06 1017.1
14 04:54 Calm 10.00 A Few Clouds FEW100 73.9 73 97% 30.06 1017.3
14 03:54 Calm 10.00 Fair CLR 75 73 94% 73 30.06 1017.0
14 02:54 Calm 10.00 Fair CLR 75.9 73 91% 76 30.06 1017.1
14 01:54 S 3 10.00 Fair CLR 77 73 87.1 77 88% 78 30.07 1017.5
14 00:54 S 3 10.00 Fair CLR 78.1 73.9 87% 81 30.08 1017.8
13 23:54 Vrbl 5 10.00 Fair CLR 80.1 73.9 82% 85 30.08 1018.1
13 22:54 Vrbl 3 10.00 Fair CLR 81 75 82% 87 30.08 1018.1
13 21:54 S 5 10.00 Fair CLR 82.9 73.9 74% 89 30.09 1018.1
13 20:54 S 6 10.00 Mostly Cloudy BKN070 84 72 67% 90 30.07 1017.6
13 19:54 Calm 10.00 Fair CLR 87.1 66.9 93.9 87.1 51% 90 30.07 1017.5
13 18:54 Calm 10.00 Fair CLR 90 66 45% 93 30.07 1017.4
13 17:54 Calm 10.00 A Few Clouds FEW060 91.9 64 40% 94 30.06 1017.2
13 16:54 N 6 10.00 Fair CLR 93.9 66.9 41% 98 30.07 1017.6
13 15:54 Calm 10.00 A Few Clouds FEW055 93 66 41% 96 30.08 1017.9
13 14:54 Calm 10.00 Mostly Cloudy BKN047 89.1 70 53% 94 30.09 1018.3
13 13:54 Vrbl 5 10.00 A Few Clouds FEW036 89.1 69.1 90 75 52% 94 30.11 1018.8
13 12:54 Calm 10.00 Mostly Cloudy BKN032 BKN043 84.9 71.1 63% 90 30.13 1019.6
13 11:54 Calm 10.00 Mostly Cloudy BKN027 84 71.1 65% 89 30.15 1020.3
13 10:54 S 5 10.00 Mostly Cloudy SCT019 BKN026 82 72 72% 87 30.16 1020.6
13 09:54 W 5 10.00 Partly Cloudy FEW011 SCT120 80.1 72 76% 84 30.16 1020.8
13 08:54 SW 5 10.00 Mostly Cloudy BKN008 BKN095 77 73 88% 78 30.17 1021.2
13 07:54 SW 5 10.00 Overcast OVC006 75 73 75 73 94% 73 30.18 1021.4 0.04 0.05
13 06:54 S 5 8.00 Light Rain BKN007 BKN014 OVC024 73.9 73 97% 30.17 1021.2
13 05:54 Calm 10.00 Overcast FEW009 SCT014 OVC023 73 72 96% 30.17 1021.0
13 04:54 Calm 10.00 Light Rain BKN043 OVC055 73 72 96% 30.16 1020.9 0.01 0.01
13 03:54 Calm 10.00 Mostly Cloudy BKN075 73 72 96% 30.16 1020.8
13 02:54 Calm 10.00 Mostly Cloudy BKN085 BKN110 73.9 72 94% 30.16 1020.7
13 01:54 S 5 10.00 Fair CLR 73.9 73 78.1 73.9 97% 30.18 1021.4 0.03
13 00:54 Vrbl 3 10.00 Partly Cloudy SCT006 75 73 94% 73 30.19 1021.6
12 23:54 Calm 10.00 Mostly Cloudy BKN120 75 73.9 96% 73 30.19 1021.6 0.03
12 22:54 S 6 10.00 Mostly Cloudy BKN090 75.9 73.9 94% 75 30.19 1021.8
12 21:54 S 3 10.00 Fair CLR 77 73 88% 78 30.19 1021.7
12 20:54 S 3 10.00 Overcast BKN023 OVC032 77 73 88% 78 30.19 1021.6
12 19:54 Calm 10.00 Overcast OVC026 79 72 81 77 79% 82 30.17 1021.0
12 18:54 S 3 10.00 Mostly Cloudy BKN029 80.1 71.1 74% 84 30.16 1020.7
12 17:54 Calm 10.00 Partly Cloudy FEW039 SCT047 80.1 71.1 74% 84 30.15 1020.6
12 16:54 SE 3 10.00 Partly Cloudy SCT039 80.1 71.1 74% 84 30.16 1020.7
12 15:54 Calm 10.00 Mostly Cloudy FEW023 BKN039 80.1 70 71% 83 30.16 1021.0
12 14:54 Vrbl 3 10.00 Mostly Cloudy BKN043 BKN050 79 72 79% 82 30.17 1021.1
12 13:54 W 5 10.00 Mostly Cloudy FEW017 SCT022 BKN050 78.1 72 80.1 72 82% 80 30.18 1021.6 0.02
12 12:54 Calm 10.00 Light Rain SCT042 BKN075 BKN100 78.1 72 82% 80 30.17 1021.0
12 11:54 SW 7 10.00 Mostly Cloudy FEW039 SCT065 BKN090 77 72 85% 78 30.2 1022.3 0.02
12 10:54 Calm 10.00 Partly Cloudy FEW023 SCT070 79 69.1 72% 82 30.18 1021.4
12 09:54 Vrbl 3 10.00 Overcast OVC075 77 69.1 77% 79 30.17 1021.0
12 08:54 Calm 10.00 Fair CLR 73.9 68 82% 30.15 1020.3
12 07:54 Calm 10.00 Fair CLR 72 68 72 66.9 87% 30.16 1020.6
12 06:54 Calm 10.00 Partly Cloudy SCT080 SCT110 71.1 66.9 87% 30.13 1019.6
12 05:54 Calm 10.00 Mostly Cloudy BKN095 68 66 93% 30.14 1020.0
12 04:54 Calm 10.00 Mostly Cloudy BKN100 68 64.9 90% 30.11 1019.0
12 03:54 Calm 10.00 Fair CLR 68 64.9 90% 30.1 1018.7
12 02:54 Calm 10.00 Fair CLR 69.1 64.9 87% 30.09 1018.4
12 01:54 Calm 10.00 Fair CLR 70 64.9 81 69.1 84% 30.1 1018.6
12 00:54 Calm 10.00 Fair CLR 70 64.9 84% 30.1 1018.7
11 23:54 Calm 10.00 Fair CLR 71.1 64.9 81% 30.09 1018.4
11 22:54 Calm 10.00 Partly Cloudy SCT060 73.9 64.9 74% 30.08 1018.1
11 21:54 W 3 10.00 Mostly Cloudy BKN060 78.1 64 62% 80 30.08 1017.8
11 20:54 W 6 10.00 Overcast OVC055 79 63 58% 81 30.06 1017.2
11 19:54 W 7 10.00 Fair CLR 82 64 88 82 55% 84 30.04 1016.6
11 18:54 NW 8 10.00 Partly Cloudy SCT050 82.9 64 53% 84 30.03 1016.3
11 17:54 NW 8 10.00 Mostly Cloudy BKN055 86 64 48% 87 30.01 1015.4
11 16:54 Vrbl 6 10.00 A Few Clouds FEW050 86 63 46% 87 30 1015.0
11 15:54 W 10 G 16 10.00 A Few Clouds FEW048 87.1 63 45% 88 29.98 1014.6
11 14:54 W 8 10.00 Partly Cloudy SCT049 86 64 48% 87 29.98 1014.4
11 13:54 W 8 G 18 10.00 A Few Clouds FEW047 84.9 63 87.1 75 48% 86 29.97 1014.2
11 12:54 SW 8 G 16 10.00 A Few Clouds FEW044 84.9 63 48% 86 29.97 1013.9
11 11:54 W 9 10.00 Partly Cloudy SCT041 84 64 51% 85 29.96 1013.8
11 10:54 W 8 10.00 Partly Cloudy SCT036 82 63 53% 83 29.95 1013.5
11 09:54 Vrbl 7 G 16 10.00 Fair CLR 80.1 63 56% 81 29.94 1013.2
11 08:54 W 9 10.00 Fair CLR 78.1 64 62% 80 29.93 1012.8
11 07:54 Vrbl 6 10.00 Fair CLR 75 66 77 72 74% 76 29.92 1012.5 0.04
Date Time (edt) Wind (mph) Vis. (mi.) Weather Sky Cond. Air Dwpt Max. Min. Relative Humidity Wind Chill (°F) Heat Index (°F) altimeter (in) sea level (mb) 1 hr 3 hr 6 hr
6 hour
Temperature (ºF) Pressure Precipitation (in)